Delta Virtual Airport Information Service

San Juan Luis Munoz Marin International Airport

ICAO: TJSJ Country: Puerto Rico
Latitude: 18.4394 Longitude: -66.0018
Latest Arrival : FDX251 (1) (KMEM-TJSJ) Latest Departure : JBU262371 (TJSJ-KJFK)


WX CaptureLIVE
Data provided by noaa.gov | Fetched at 01:46:40

METAR : TJSJ 300556Z 00000KT 10SM FEW020 SCT032 BKN060 25/23 A2992 RMK AO2 RAB03E12 SLP132 P0002 60007 T02500228 10278 20250 58016

TAF : TJSJ 300556Z 00000KT 10SM FEW020 SCT032 BKN060 25/23 A2992 RMK AO2 RAB03E12 SLP132 P0002 60007 T02500228 10278 20250 58016


Runway Data for TJSJ
Data provided by openaviationdata.com

Runway ID Mag Var Hdg Length Elevation Surface ILS Freq ILS Id ILS Slope
8 -11 77° 10005 ft 9 ft Asphalt 110.3 ISJU 3
10 -11 101° 8013 ft 9 ft Concrete 109.7 ICLA 3
26 -11 257° 10005 ft 9 ft Asphalt -- -- --
28 -11 281° 8013 ft 9 ft Concrete -- -- --

San Juan Luis Munoz Marin International Airport, Puerto Rico
Use only for reference purposes



Not for navigational purposes.